Mandan, ND

6:09 AM CDT on June 27, 2017 (GMT -0500)
Mandan

Weather History for KY19 - October, 2012

Change the Weather History Date:

Tuesday, October 2, 2012

  Actual Average (KBIS) Record (KBIS)
Temperature  
Mean Temperature 62 °F -  
Max Temperature 78 °F 65 °F 93 °F (1997)
Min Temperature 46 °F 38 °F 18 °F (1999)
Degree Days  
Heating Degree Days 3    
Growing Degree Days 12 (Base 50)    
Moisture  
Dew Point 33 °F    
Average Humidity 38    
Maximum Humidity 66    
Minimum Humidity 18    
Precipitation  
Precipitation 0.00 in - - ()
Sea Level Pressure  
Sea Level Pressure 29.77 in    
Wind  
Wind Speed 11 mph (WSW)    
Max Wind Speed 20 mph    
Max Gust Speed 23 mph    
Visibility 10 miles    
Events      
Averages and records for this station are not official NWS values.
T = Trace of Precipitation, MM = Missing Value Source: NWS Daily Summary

Daily Weather History Graph

Daily Weather History Graph

Search for Another Location

Airport or City:

Trip Planner

Search our weather history database for the weather conditions in past years. The results will help you decide how hot, cold, wet, or windy it might be!

Date:

Astronomy

Oct. 02, 2012 Rise Set
Actual Time 7:44 AM CDT 7:20 PM CDT
Civil Twilight 7:14 AM CDT 7:50 PM CDT
Nautical Twilight 6:38 AM CDT 8:25 PM CDT
Astronomical Twilight 6:03 AM CDT 9:01 PM CDT
Moon 8:20 PM CDT (10/2) 10:25 AM CDT (10/2)
Length of Visible Light 12h 36m
Length of Day
11h 35m
Waning Gibbous, 94% of the Moon is Illuminated
Oct 2
Waning Gibbous
Oct 8
Last Quarter
Oct 15
New
Oct 21
First Quarter
Oct 29
Full

Hourly Weather History & Observations

Time (CDT) Temp. Windchill Dew Point Humidity Pressure Visibility Wind Dir Wind Speed Gust Speed Precip Events Conditions
12:15 AM 48.2 °F - 26.6 °F 43% 29.94 in 10.0 mi South 9.2 mph - N/A   Clear
12:35 AM 48.2 °F - 26.6 °F 43% 29.93 in 10.0 mi South 10.4 mph - N/A   Clear
12:55 AM 48.2 °F - 26.6 °F 43% 29.92 in 10.0 mi South 10.4 mph - N/A   Clear
1:15 AM 48.2 °F - 26.6 °F 43% 29.91 in 10.0 mi South 9.2 mph - N/A   Clear
1:35 AM 46.4 °F 41.9 °F 26.6 °F 46% 29.89 in 10.0 mi South 9.2 mph - N/A   Clear
1:55 AM 48.2 °F - 28.4 °F 46% 29.88 in 10.0 mi South 8.1 mph - N/A   Clear
2:15 AM 48.2 °F - 28.4 °F 46% 29.87 in 10.0 mi SSW 11.5 mph - N/A   Clear
2:35 AM 48.2 °F - 28.4 °F 46% 29.86 in 10.0 mi South 9.2 mph - N/A   Clear
3:15 AM 48.2 °F - 28.4 °F 46% 29.85 in 10.0 mi SSW 12.7 mph - N/A   Clear
3:35 AM 48.2 °F - 28.4 °F 46% 29.83 in 10.0 mi South 10.4 mph - N/A   Clear
3:55 AM 46.4 °F 42.4 °F 28.4 °F 50% 29.82 in 10.0 mi South 8.1 mph - N/A   Clear
4:15 AM 48.2 °F - 30.2 °F 50% 29.82 in 10.0 mi South 11.5 mph - N/A   Partly Cloudy
4:35 AM 48.2 °F - 28.4 °F 46% 29.81 in 10.0 mi SSW 13.8 mph 20.7 mph N/A   Scattered Clouds
4:55 AM 48.2 °F - 28.4 °F 46% 29.80 in 10.0 mi SSW 16.1 mph 23.0 mph N/A   Mostly Cloudy
5:35 AM 48.2 °F - 28.4 °F 46% 29.77 in 10.0 mi South 12.7 mph - N/A   Partly Cloudy
5:55 AM 48.2 °F - 28.4 °F 46% 29.76 in 10.0 mi South 12.7 mph - N/A   Partly Cloudy
6:15 AM 50.0 °F - 28.4 °F 43% 29.76 in 10.0 mi South 12.7 mph 17.3 mph N/A   Scattered Clouds
6:35 AM 50.0 °F - 28.4 °F 43% 29.75 in 10.0 mi South 12.7 mph 18.4 mph N/A   Partly Cloudy
6:55 AM 48.2 °F - 28.4 °F 46% 29.74 in 10.0 mi South 11.5 mph - N/A   Scattered Clouds
7:15 AM 48.2 °F - 28.4 °F 46% 29.74 in 10.0 mi South 9.2 mph 16.1 mph N/A   Partly Cloudy
7:35 AM 48.2 °F - 28.4 °F 46% 29.73 in 10.0 mi South 8.1 mph - N/A   Clear
7:55 AM 48.2 °F - 28.4 °F 46% 29.73 in 10.0 mi South 8.1 mph - N/A   Clear
8:15 AM 50.0 °F - 28.4 °F 43% 29.73 in 10.0 mi South 9.2 mph 17.3 mph N/A   Clear
8:35 AM 50.0 °F - 28.4 °F 43% 29.73 in 10.0 mi South 15.0 mph - N/A   Clear
8:55 AM 53.6 °F - 28.4 °F 38% 29.72 in 10.0 mi SSW 17.3 mph 23.0 mph N/A   Clear
9:15 AM 55.4 °F - 28.4 °F 36% 29.72 in 10.0 mi SSW 15.0 mph 23.0 mph N/A   Clear
9:35 AM 55.4 °F - 30.2 °F 38% 29.71 in 10.0 mi SSW 15.0 mph - N/A   Clear
9:55 AM 55.4 °F - 30.2 °F 38% 29.72 in 10.0 mi SW 16.1 mph 19.6 mph N/A   Clear
10:15 AM 59.0 °F - 30.2 °F 34% 29.71 in 10.0 mi SW 16.1 mph 23.0 mph N/A   Clear
10:35 AM 60.8 °F - 32.0 °F 34% 29.72 in 10.0 mi SSW 9.2 mph - N/A   Clear
10:55 AM 62.6 °F - 32.0 °F 32% 29.72 in 10.0 mi SSW 13.8 mph - N/A   Clear
11:15 AM 62.6 °F - 32.0 °F 32% 29.73 in 10.0 mi SSW 6.9 mph - N/A   Clear
11:35 AM 64.4 °F - 32.0 °F 30% 29.72 in 10.0 mi SW 9.2 mph - N/A   Clear
11:55 AM 66.2 °F - 32.0 °F 28% 29.72 in 10.0 mi West 9.2 mph - N/A   Clear
12:15 PM 68.0 °F - 32.0 °F 26% 29.72 in 10.0 mi SW 9.2 mph - N/A   Clear
12:35 PM 69.8 °F - 32.0 °F 25% 29.72 in 10.0 mi West 9.2 mph - N/A   Clear
12:55 PM 71.6 °F - 32.0 °F 23% 29.72 in 10.0 mi WNW 6.9 mph - N/A   Clear
1:15 PM 73.4 °F - 32.0 °F 22% 29.72 in 10.0 mi West 3.5 mph - N/A   Clear
1:35 PM 75.2 °F - 33.8 °F 22% 29.72 in 10.0 mi NNW 11.5 mph - N/A   Clear
1:55 PM 77.0 °F - 33.8 °F 21% 29.71 in 10.0 mi NW 10.4 mph - N/A   Clear
2:15 PM 77.0 °F - 33.8 °F 21% 29.71 in 10.0 mi NW 13.8 mph 18.4 mph N/A   Clear
2:35 PM 77.0 °F - 33.8 °F 21% 29.71 in 10.0 mi NNW 11.5 mph - N/A   Clear
2:55 PM 78.8 °F - 33.8 °F 20% 29.71 in 10.0 mi NW 13.8 mph 23.0 mph N/A   Clear
3:15 PM 78.8 °F - 32.0 °F 18% 29.71 in 10.0 mi NNW 15.0 mph - N/A   Clear
3:35 PM 78.8 °F - 33.8 °F 20% 29.71 in 10.0 mi NNW 19.6 mph 23.0 mph N/A   Clear
3:55 PM 78.8 °F - 35.6 °F 21% 29.71 in 10.0 mi NNW 15.0 mph 21.9 mph N/A   Clear
4:15 PM 78.8 °F - 35.6 °F 21% 29.71 in 10.0 mi NNW 12.7 mph 20.7 mph N/A   Clear
4:35 PM 77.0 °F - 35.6 °F 22% 29.72 in 10.0 mi NNW 17.3 mph - N/A   Clear
4:55 PM 77.0 °F - 35.6 °F 22% 29.72 in 10.0 mi NW 16.1 mph 20.7 mph N/A   Unknown
5:15 PM 77.0 °F - 35.6 °F 22% 29.72 in 10.0 mi WNW 13.8 mph 18.4 mph N/A   Clear
5:35 PM 77.0 °F - 35.6 °F 22% 29.73 in 10.0 mi NW 11.5 mph 21.9 mph N/A   Clear
5:55 PM 75.2 °F - 35.6 °F 24% 29.74 in 10.0 mi NW 11.5 mph - N/A   Clear
6:15 PM 75.2 °F - 35.6 °F 24% 29.75 in 10.0 mi NNW 12.7 mph - N/A   Clear
6:35 PM 71.6 °F - 37.4 °F 29% 29.76 in 10.0 mi North 10.4 mph - N/A   Clear
6:55 PM 68.0 °F - 37.4 °F 33% 29.77 in 10.0 mi North 12.7 mph - N/A   Clear
7:15 PM 66.2 °F - 39.2 °F 37% 29.78 in 10.0 mi North 10.4 mph - N/A   Mostly Cloudy
7:35 PM 64.4 °F - 39.2 °F 40% 29.79 in 10.0 mi North 10.4 mph - N/A   Mostly Cloudy
7:55 PM 62.6 °F - 39.2 °F 42% 29.79 in 10.0 mi North 10.4 mph - N/A   Mostly Cloudy
8:15 PM 60.8 °F - 39.2 °F 45% 29.79 in 10.0 mi North 9.2 mph - N/A   Scattered Clouds
8:35 PM 59.0 °F - 39.2 °F 48% 29.80 in 10.0 mi North 9.2 mph - N/A   Partly Cloudy
8:55 PM 59.0 °F - 39.2 °F 48% 29.80 in 10.0 mi North 6.9 mph - N/A   Partly Cloudy
9:15 PM 57.2 °F - 39.2 °F 51% 29.81 in 10.0 mi NNE 6.9 mph - N/A   Clear
9:35 PM 55.4 °F - 39.2 °F 54% 29.81 in 10.0 mi North 8.1 mph - N/A   Clear
9:55 PM 55.4 °F - 39.2 °F 54% 29.81 in 10.0 mi North 8.1 mph - N/A   Mostly Cloudy
10:15 PM 53.6 °F - 39.2 °F 58% 29.82 in 10.0 mi North 6.9 mph - N/A   Overcast
10:35 PM 55.4 °F - 39.2 °F 54% 29.82 in 10.0 mi NNE 8.1 mph - N/A   Overcast
10:55 PM 55.4 °F - 39.2 °F 54% 29.81 in 10.0 mi NNE 9.2 mph - N/A   Mostly Cloudy
11:15 PM 53.6 °F - 39.2 °F 58% 29.82 in 10.0 mi NNE 5.8 mph - N/A   Scattered Clouds
11:35 PM 50.0 °F - 39.2 °F 66% 29.83 in 10.0 mi East 6.9 mph - N/A   Scattered Clouds
11:55 PM 53.6 °F - 37.4 °F 54% 29.84 in 10.0 mi Calm Calm - N/A   Partly Cloudy